Weather in Troisdorf

Germany     50°48′41″N   7°08′29″E
temp.,
°C
wind,
m/s
gust,
m/s
humid.,
%
clouds,
%
prec.,
mm/h
press.,
hPa
HPBL,
m
12 may, wed
wed1223:00+11w2696100 0.1 1010270
02:00+10w3797100 0.3 1011321
05:00+10w3896100 0.9 1012423
08:00+10wnw2794100 1.0 1012437
11:00+11nnw138998 0.0 1013398
14:00+16n125398 0.4 10111384
17:00+15w117370 1.4 1011500
20:00+12nw118624 3.1 101022
13 may, thu
thu1323:00+9se01924 0.1 101110
02:00+7se11957 0.2 101010
05:00+6se119522 0.0 100911
08:00+9sse11905 0.0 1009136
11:00+15w226696 0.3 1007829
14:00+18nw2341100 0.4 10051906
17:00+16wnw2358100 0.4 10051360
20:00+10wnw2696100 4.0 1007463
14 may, fri
fri1423:00+10w1398100 6.8 1007190
02:00+9sw1298100 8.3 1007141
05:00+7ssw229612 0.1 100740
08:00+8s12905 0.1 1007168
11:00+14wsw236759 0.3 10071161
14:00+13w3585100 2.2 1007903
17:00+13wnw248224 2.2 1007612
20:00+12sw128724 4.0 100727
15 may, sat
sat1523:00+8ssw229521 0.1 100921
02:00+6sse22965 0.1 100930
05:00+5se229761 0.0 100851
08:00+7se1294100 0.0 1009111
11:00+9se1290100 0.1 1009177
14:00+13s226733 0.7 10081095
17:00+13wsw2275100 1.3 1007724
20:00+11ssw1291100 2.6 100782
16 may, sun
sun1623:00+8s229686 0.3 100953
02:00+8s1197100 0.3 100937
05:00+8ssw1197100 0.6 100936
08:00+8s1297100 1.0 1010135
11:00+11wsw348789 1.3 1010728
14:00+12wsw468597 3.4 1010995
17:00+13w358515 1.9 1010837
20:00+12ese118873 2.7 100919